Location: Flotzheim
(48.8375°N, 10.8136°E)
Time: 16:54:25
(UTC+00:00)

BREEZE-M DEB (TANK) - Pass Details

Date: 23 January 2021
Orbit: 310 x 13785 km, 49.6° (Epoch: 27 February)

Event Time Altitude Azimuth Distance (km) Brightness Sun altitude
Rises 16:40:29 0° 266° (W) 2,862 8.2 -6.8°
Reaches altitude 10° 16:43:09 10° 268° (W) 1,475 6.4 -7.2°
Maximum altitude 16:45:48 74° 354° (N) 334 1.7 -7.6°
Enters shadow 16:47:56 11° 81° (E) 1,184 3.9 -8.0°
